Time,TemperatureF,DewpointF,PressureIn,WindDirection,WindDirectionDegrees,WindSpeedMPH,WindSpeedGustMPH,Humidity,HourlyPrecipIn,Conditions,Clouds,dailyrainin,SoftwareType,DateUTC
2013-08-29 00:01:00,73.9,69.8,30.12,SSE,158,0.0,0.0,87,0.00,,---,0.00,VWS V14.01,2013-08-29 04:01:00,
2013-08-29 00:02:00,73.9,69.8,30.12,SSE,158,0.0,0.0,87,0.00,,---,0.00,VWS V14.01,2013-08-29 04:02:00,
2013-08-29 00:06:00,73.8,69.7,30.12,SSE,158,0.0,0.0,87,0.00,,---,0.00,VWS V14.01,2013-08-29 04:06:00,
2013-08-29 00:08:00,73.8,69.7,30.12,SSE,158,0.0,0.0,87,0.00,,---,0.00,VWS V14.01,2013-08-29 04:08:00,
2013-08-29 00:14:00,73.8,69.7,30.12,SSE,158,0.0,0.0,87,0.00,,---,0.00,VWS V14.01,2013-08-29 04:14:00,
2013-08-29 00:19:00,73.8,69.7,30.12,SSE,158,0.0,0.0,87,0.00,,---,0.00,VWS V14.01,2013-08-29 04:19:00,
2013-08-29 00:24:00,73.8,69.7,30.12,SSE,158,0.0,0.0,87,0.00,,---,0.00,VWS V14.01,2013-08-29 04:24:00,
2013-08-29 00:29:00,73.8,69.7,30.12,SSE,158,0.0,0.0,87,0.00,,---,0.00,VWS V14.01,2013-08-29 04:29:00,
2013-08-29 00:35:00,73.6,69.5,30.12,SSE,158,0.0,0.0,87,0.00,,---,0.00,VWS V14.01,2013-08-29 04:35:00,
2013-08-29 00:40:00,73.6,69.5,30.12,SSE,158,0.0,0.0,87,0.00,,---,0.00,VWS V14.01,2013-08-29 04:40:00,
2013-08-29 00:45:00,73.6,69.5,30.12,SSE,158,0.0,0.0,87,0.00,,---,0.00,VWS V14.01,2013-08-29 04:45:00,
2013-08-29 00:50:00,73.4,69.3,30.12,SSE,158,0.0,0.0,87,0.00,,---,0.00,VWS V14.01,2013-08-29 04:50:00,
2013-08-29 00:56:00,73.4,69.3,30.12,SSE,158,0.0,0.0,87,0.00,,---,0.00,VWS V14.01,2013-08-29 04:56:00,
2013-08-29 01:01:00,73.4,69.3,30.12,SSE,158,0.0,0.0,87,0.00,,---,0.00,VWS V14.01,2013-08-29 05:01:00,
2013-08-29 01:06:00,73.4,69.3,30.12,SSE,158,0.0,0.0,87,0.00,,---,0.00,VWS V14.01,2013-08-29 05:06:00,
2013-08-29 01:11:00,73.4,69.3,30.12,SSE,158,0.0,0.0,87,0.00,,---,0.00,VWS V14.01,2013-08-29 05:11:00,
2013-08-29 01:16:00,73.4,69.3,30.12,SSE,158,0.0,0.0,87,0.00,,---,0.00,VWS V14.01,2013-08-29 05:16:00,
2013-08-29 01:21:00,73.4,69.3,30.12,SSE,158,0.0,0.0,87,0.00,,---,0.00,VWS V14.01,2013-08-29 05:21:00,
2013-08-29 01:26:00,73.4,69.6,30.12,SSE,158,0.0,0.0,88,0.00,,---,0.00,VWS V14.01,2013-08-29 05:26:00,
2013-08-29 01:31:00,73.4,69.6,30.12,SSE,158,0.0,0.0,88,0.00,,---,0.00,VWS V14.01,2013-08-29 05:31:00,
2013-08-29 01:36:00,73.4,69.6,30.12,SSE,158,0.0,0.0,88,0.00,,---,0.00,VWS V14.01,2013-08-29 05:36:00,
2013-08-29 01:41:00,73.4,69.6,30.12,SSE,158,0.0,0.0,88,0.00,,---,0.00,VWS V14.01,2013-08-29 05:41:00,
2013-08-29 01:46:00,73.4,69.6,30.09,SSE,158,0.0,0.0,88,0.00,,---,0.00,VWS V14.01,2013-08-29 05:46:00,
2013-08-29 01:52:00,73.6,69.8,30.09,SSE,158,0.0,0.0,88,0.00,,---,0.00,VWS V14.01,2013-08-29 05:52:00,
2013-08-29 01:57:00,73.6,70.1,30.09,SSE,158,0.0,0.0,89,0.00,,---,0.00,VWS V14.01,2013-08-29 05:57:00,
2013-08-29 02:02:00,73.6,70.1,30.09,SSE,158,0.0,0.0,89,0.00,,---,0.00,VWS V14.01,2013-08-29 06:02:00,
2013-08-29 02:07:00,73.6,70.1,30.09,SSE,158,0.0,0.0,89,0.00,,---,0.00,VWS V14.01,2013-08-29 06:07:00,
2013-08-29 02:13:00,73.6,70.1,30.09,SSE,158,0.0,0.0,89,0.00,,---,0.00,VWS V14.01,2013-08-29 06:13:00,
2013-08-29 02:18:00,73.6,70.1,30.09,SSE,158,0.0,0.0,89,0.00,,---,0.00,VWS V14.01,2013-08-29 06:18:00,
2013-08-29 02:23:00,73.6,70.1,30.09,SSE,158,0.0,0.0,89,0.00,,---,0.00,VWS V14.01,2013-08-29 06:23:00,
2013-08-29 02:28:00,73.6,70.1,30.09,SSE,158,0.0,0.0,89,0.00,,---,0.00,VWS V14.01,2013-08-29 06:28:00,
2013-08-29 02:34:00,73.6,70.1,30.09,SSE,158,0.0,0.0,89,0.00,,---,0.00,VWS V14.01,2013-08-29 06:34:00,
2013-08-29 02:39:00,73.6,70.1,30.09,SSE,158,0.0,0.0,89,0.00,,---,0.00,VWS V14.01,2013-08-29 06:39:00,
2013-08-29 02:44:00,73.6,70.1,30.09,SSE,158,0.0,0.0,89,0.00,,---,0.00,VWS V14.01,2013-08-29 06:44:00,
2013-08-29 02:50:00,73.6,70.1,30.12,SSE,158,0.0,0.0,89,0.00,,---,0.00,VWS V14.01,2013-08-29 06:50:00,
2013-08-29 02:55:00,73.6,69.8,30.12,East,90,0.0,0.0,88,0.00,,---,0.00,VWS V14.01,2013-08-29 06:55:00,
2013-08-29 03:00:00,73.6,69.8,30.12,NNE,22,0.0,0.0,88,0.00,,---,0.00,VWS V14.01,2013-08-29 07:00:00,
2013-08-29 03:05:00,73.4,69.6,30.09,NNE,22,0.0,0.0,88,0.00,,---,0.00,VWS V14.01,2013-08-29 07:05:00,
2013-08-29 03:10:00,73.4,69.6,30.09,North,0,0.0,0.0,88,0.00,,---,0.00,VWS V14.01,2013-08-29 07:10:00,
2013-08-29 03:16:00,73.4,69.6,30.09,North,0,0.0,0.0,88,0.00,,---,0.00,VWS V14.01,2013-08-29 07:16:00,
2013-08-29 03:21:00,73.2,69.5,30.09,SE,135,0.0,0.0,88,0.00,,---,0.00,VWS V14.01,2013-08-29 07:21:00,
2013-08-29 03:26:00,73.2,69.5,30.09,SE,135,0.0,0.0,88,0.00,,---,0.00,VWS V14.01,2013-08-29 07:26:00,
2013-08-29 03:31:00,73.0,69.3,30.09,SE,135,0.0,0.0,88,0.00,,---,0.00,VWS V14.01,2013-08-29 07:31:00,
2013-08-29 03:37:00,73.0,69.3,30.09,SE,135,0.0,0.0,88,0.00,,---,0.00,VWS V14.01,2013-08-29 07:37:00,
2013-08-29 03:42:00,73.0,69.3,30.09,SE,135,0.0,0.0,88,0.00,,---,0.00,VWS V14.01,2013-08-29 07:42:00,
2013-08-29 03:47:00,73.0,69.3,30.09,SE,135,0.0,0.0,88,0.00,,---,0.00,VWS V14.01,2013-08-29 07:47:00,
2013-08-29 03:52:00,72.9,69.1,30.09,SE,135,0.0,0.0,88,0.00,,---,0.00,VWS V14.01,2013-08-29 07:52:00,
2013-08-29 03:58:00,72.9,69.4,30.09,SE,135,0.0,0.0,89,0.00,,---,0.00,VWS V14.01,2013-08-29 07:58:00,
2013-08-29 04:03:00,73.0,69.6,30.09,SE,135,0.0,0.0,89,0.00,,---,0.00,VWS V14.01,2013-08-29 08:03:00,
2013-08-29 04:08:00,73.0,69.6,30.09,SE,135,0.0,0.0,89,0.00,,---,0.00,VWS V14.01,2013-08-29 08:08:00,
2013-08-29 04:14:00,73.0,69.6,30.09,SE,135,0.0,0.0,89,0.00,,---,0.00,VWS V14.01,2013-08-29 08:14:00,
2013-08-29 04:19:00,73.0,69.6,30.09,SE,135,0.0,0.0,89,0.00,,---,0.00,VWS V14.01,2013-08-29 08:19:00,
2013-08-29 04:24:00,73.0,69.6,30.09,SE,135,0.0,0.0,89,0.00,,---,0.00,VWS V14.01,2013-08-29 08:24:00,
2013-08-29 04:29:00,73.0,69.6,30.09,SE,135,0.0,0.0,89,0.00,,---,0.00,VWS V14.01,2013-08-29 08:29:00,
2013-08-29 04:35:00,73.0,69.6,30.09,SE,135,0.0,0.0,89,0.00,,---,0.00,VWS V14.01,2013-08-29 08:35:00,
2013-08-29 04:40:00,72.9,69.4,30.09,SE,135,0.0,0.0,89,0.00,,---,0.00,VWS V14.01,2013-08-29 08:40:00,
2013-08-29 04:45:00,73.0,69.6,30.09,SE,135,0.0,0.0,89,0.00,,---,0.00,VWS V14.01,2013-08-29 08:45:00,
2013-08-29 04:50:00,72.9,69.4,30.06,SE,135,0.0,0.0,89,0.00,,---,0.00,VWS V14.01,2013-08-29 08:50:00,
2013-08-29 04:55:00,72.9,69.4,30.06,SE,135,0.0,0.0,89,0.00,,---,0.00,VWS V14.01,2013-08-29 08:55:00,
2013-08-29 05:01:00,72.9,69.4,30.06,SE,135,0.0,0.0,89,0.00,,---,0.00,VWS V14.01,2013-08-29 09:01:00,
2013-08-29 05:06:00,72.9,69.4,30.06,SE,135,0.0,0.0,89,0.00,,---,0.00,VWS V14.01,2013-08-29 09:06:00,
2013-08-29 05:08:00,72.9,69.8,30.06,SE,135,0.0,0.0,90,0.00,,---,0.00,VWS V14.01,2013-08-29 09:08:00,
2013-08-29 05:13:00,72.9,69.8,30.06,SE,135,0.0,0.0,90,0.00,,---,0.00,VWS V14.01,2013-08-29 09:13:00,
2013-08-29 05:19:00,72.9,69.4,30.06,SE,135,0.0,0.0,89,0.00,,---,0.00,VWS V14.01,2013-08-29 09:19:00,
2013-08-29 05:24:00,72.9,69.4,30.06,SE,135,0.0,0.0,89,0.00,,---,0.00,VWS V14.01,2013-08-29 09:24:00,
2013-08-29 05:29:00,72.9,69.4,30.06,SE,135,0.0,0.0,89,0.00,,---,0.00,VWS V14.01,2013-08-29 09:29:00,
2013-08-29 05:34:00,72.7,69.3,30.09,SE,135,0.0,0.0,89,0.00,,---,0.00,VWS V14.01,2013-08-29 09:34:00,
2013-08-29 05:39:00,72.7,69.3,30.09,SE,135,0.0,0.0,89,0.00,,---,0.00,VWS V14.01,2013-08-29 09:39:00,
2013-08-29 05:44:00,72.7,69.3,30.09,SE,135,0.0,0.0,89,0.00,,---,0.00,VWS V14.01,2013-08-29 09:44:00,
2013-08-29 05:50:00,72.7,69.3,30.09,SE,135,0.0,0.0,89,0.00,,---,0.00,VWS V14.01,2013-08-29 09:50:00,
2013-08-29 05:55:00,72.5,69.1,30.09,SE,135,0.0,0.0,89,0.00,,---,0.00,VWS V14.01,2013-08-29 09:55:00,
2013-08-29 06:00:00,72.7,69.3,30.09,SE,135,0.0,0.0,89,0.00,,---,0.00,VWS V14.01,2013-08-29 10:00:00,
2013-08-29 06:06:00,72.7,69.6,30.06,SE,135,0.0,0.0,90,0.00,,---,0.00,VWS V14.01,2013-08-29 10:06:00,
2013-08-29 06:11:00,72.7,69.6,30.06,SE,135,0.0,0.0,90,0.00,,---,0.00,VWS V14.01,2013-08-29 10:11:00,
2013-08-29 06:16:00,72.7,69.3,30.09,SE,135,0.0,0.0,89,0.00,,---,0.00,VWS V14.01,2013-08-29 10:16:00,
2013-08-29 06:21:00,72.5,69.1,30.09,SE,135,0.0,0.0,89,0.00,,---,0.00,VWS V14.01,2013-08-29 10:21:00,
2013-08-29 06:26:00,72.5,69.1,30.09,SE,135,0.0,0.0,89,0.00,,---,0.00,VWS V14.01,2013-08-29 10:26:00,
2013-08-29 06:32:00,72.5,69.1,30.09,SE,135,0.0,0.0,89,0.00,,---,0.00,VWS V14.01,2013-08-29 10:32:00,
2013-08-29 06:37:00,72.3,68.9,30.09,SE,135,0.0,0.0,89,0.00,,---,0.00,VWS V14.01,2013-08-29 10:37:00,
2013-08-29 06:43:00,72.3,68.9,30.09,SE,135,0.0,0.0,89,0.00,,---,0.00,VWS V14.01,2013-08-29 10:43:00,
2013-08-29 06:48:00,72.3,68.9,30.09,SE,135,0.0,0.0,89,0.00,,---,0.00,VWS V14.01,2013-08-29 10:48:00,
2013-08-29 06:53:00,72.3,68.9,30.09,SE,135,0.0,0.0,89,0.00,,---,0.00,VWS V14.01,2013-08-29 10:53:00,
2013-08-29 06:58:00,72.3,68.9,30.09,SE,135,0.0,0.0,89,0.00,,---,0.00,VWS V14.01,2013-08-29 10:58:00,
2013-08-29 07:04:00,72.3,68.9,30.09,SE,135,0.0,0.0,89,0.00,,---,0.00,VWS V14.01,2013-08-29 11:04:00,
2013-08-29 07:09:00,72.3,69.2,30.09,SE,135,0.0,0.0,90,0.00,,---,0.00,VWS V14.01,2013-08-29 11:09:00,
2013-08-29 07:14:00,72.3,69.2,30.09,SE,135,0.0,0.0,90,0.00,,---,0.00,VWS V14.01,2013-08-29 11:14:00,
2013-08-29 07:19:00,72.3,69.2,30.09,SE,135,0.0,0.0,90,0.00,,---,0.00,VWS V14.01,2013-08-29 11:19:00,
2013-08-29 07:24:00,72.3,69.2,30.09,SE,135,0.0,0.0,90,0.00,,---,0.00,VWS V14.01,2013-08-29 11:24:00,
2013-08-29 07:29:00,72.3,69.2,30.09,SE,135,0.0,0.0,90,0.00,,---,0.00,VWS V14.01,2013-08-29 11:29:00,
2013-08-29 07:35:00,72.5,69.4,30.09,SE,135,0.0,0.0,90,0.00,,---,0.00,VWS V14.01,2013-08-29 11:35:00,
2013-08-29 07:40:00,72.5,69.4,30.09,SE,135,0.0,0.0,90,0.00,,---,0.00,VWS V14.01,2013-08-29 11:40:00,
2013-08-29 07:45:00,72.5,69.4,30.09,SE,135,0.0,0.0,90,0.00,,---,0.00,VWS V14.01,2013-08-29 11:45:00,
2013-08-29 07:50:00,72.7,69.9,30.09,SE,135,0.0,0.0,91,0.00,,---,0.00,VWS V14.01,2013-08-29 11:50:00,
2013-08-29 07:56:00,72.7,69.9,30.09,SE,135,0.0,0.0,91,0.00,,---,0.00,VWS V14.01,2013-08-29 11:56:00,
2013-08-29 08:01:00,72.9,70.1,30.09,SE,135,0.0,0.0,91,0.00,,---,0.00,VWS V14.01,2013-08-29 12:01:00,
2013-08-29 08:07:00,73.0,70.6,30.09,SE,135,0.0,0.0,92,0.00,,---,0.00,VWS V14.01,2013-08-29 12:07:00,
2013-08-29 08:12:00,73.2,70.8,30.09,East,90,0.0,0.0,92,0.00,,---,0.00,VWS V14.01,2013-08-29 12:12:00,
2013-08-29 08:17:00,73.4,70.9,30.12,ESE,112,1.1,1.3,92,0.00,,---,0.00,VWS V14.01,2013-08-29 12:17:00,
2013-08-29 08:22:00,73.6,71.1,30.12,SE,135,1.3,1.3,92,0.00,,---,0.00,VWS V14.01,2013-08-29 12:22:00,
2013-08-29 08:27:00,73.8,71.3,30.12,ESE,112,0.9,0.9,92,0.00,,---,0.00,VWS V14.01,2013-08-29 12:27:00,
2013-08-29 08:32:00,73.9,71.5,30.09,ESE,112,1.3,2.0,92,0.00,,---,0.00,VWS V14.01,2013-08-29 12:32:00,
2013-08-29 08:37:00,74.3,72.2,30.09,SSE,158,1.6,1.6,93,0.00,,---,0.00,VWS V14.01,2013-08-29 12:37:00,
2013-08-29 08:42:00,74.5,72.3,30.09,SSE,158,0.0,0.0,93,0.00,,---,0.00,VWS V14.01,2013-08-29 12:42:00,
2013-08-29 08:47:00,74.8,72.7,30.09,SSE,158,0.0,0.0,93,0.00,,---,0.00,VWS V14.01,2013-08-29 12:47:00,
2013-08-29 08:52:00,75.2,73.0,30.09,East,90,1.1,1.1,93,0.00,,---,0.00,VWS V14.01,2013-08-29 12:52:00,
2013-08-29 08:58:00,75.6,73.4,30.09,East,90,0.0,0.0,93,0.00,,---,0.00,VWS V14.01,2013-08-29 12:58:00,
2013-08-29 09:03:00,75.9,73.8,30.09,East,90,0.0,0.0,93,0.00,,---,0.00,VWS V14.01,2013-08-29 13:03:00,
2013-08-29 09:08:00,76.3,74.1,30.09,East,90,0.9,0.9,93,0.00,,---,0.00,VWS V14.01,2013-08-29 13:08:00,
2013-08-29 09:14:00,76.6,74.2,30.09,ESE,112,2.5,2.5,92,0.00,,---,0.00,VWS V14.01,2013-08-29 13:14:00,
2013-08-29 09:19:00,77.0,73.8,30.09,East,90,1.6,2.0,90,0.00,,---,0.00,VWS V14.01,2013-08-29 13:19:00,
2013-08-29 09:24:00,77.4,74.2,30.09,East,90,0.0,2.0,90,0.00,,---,0.00,VWS V14.01,2013-08-29 13:24:00,
2013-08-29 09:29:00,77.7,74.2,30.09,East,90,0.9,0.9,89,0.00,,---,0.00,VWS V14.01,2013-08-29 13:29:00,
2013-08-29 09:34:00,78.1,74.2,30.12,East,90,1.6,1.6,88,0.00,,---,0.00,VWS V14.01,2013-08-29 13:34:00,
2013-08-29 09:39:00,78.6,74.4,30.12,East,90,1.6,1.6,87,0.00,,---,0.00,VWS V14.01,2013-08-29 13:39:00,
2013-08-29 09:44:00,79.0,74.4,30.12,NW,315,0.0,0.0,86,0.00,,---,0.00,VWS V14.01,2013-08-29 13:44:00,
2013-08-29 09:49:00,79.3,74.1,30.12,North,0,2.5,2.5,84,0.00,,---,0.00,VWS V14.01,2013-08-29 13:49:00,
2013-08-29 09:55:00,79.7,74.1,30.12,East,90,2.0,2.0,83,0.00,,---,0.00,VWS V14.01,2013-08-29 13:55:00,
2013-08-29 10:00:00,80.4,74.1,30.12,WNW,292,1.3,2.0,81,0.00,,---,0.00,VWS V14.01,2013-08-29 14:00:00,
2013-08-29 10:05:00,80.8,73.7,30.12,WNW,292,1.3,1.3,79,0.00,,---,0.00,VWS V14.01,2013-08-29 14:05:00,
2013-08-29 10:10:00,81.1,74.0,30.12,WNW,292,1.3,1.3,79,0.00,,---,0.00,VWS V14.01,2013-08-29 14:10:00,
2013-08-29 10:15:00,81.7,73.4,30.12,SW,225,1.1,1.1,76,0.00,,---,0.00,VWS V14.01,2013-08-29 14:15:00,
2013-08-29 10:20:00,82.0,73.7,30.12,North,0,1.1,1.1,76,0.00,,---,0.00,VWS V14.01,2013-08-29 14:20:00,
2013-08-29 10:25:00,82.6,72.7,30.12,North,0,1.1,1.1,72,0.00,,---,0.00,VWS V14.01,2013-08-29 14:25:00,
2013-08-29 10:30:00,83.1,72.3,30.12,North,0,1.1,1.1,70,0.00,,---,0.00,VWS V14.01,2013-08-29 14:30:00,
2013-08-29 10:35:00,83.3,71.6,30.12,ENE,68,1.1,1.1,68,0.00,,---,0.00,VWS V14.01,2013-08-29 14:35:00,
2013-08-29 10:40:00,83.7,71.6,30.12,ENE,68,1.1,1.1,67,0.00,,---,0.00,VWS V14.01,2013-08-29 14:40:00,
2013-08-29 10:46:00,83.8,71.3,30.12,ENE,68,1.1,1.1,66,0.00,,---,0.00,VWS V14.01,2013-08-29 14:46:00,
2013-08-29 10:51:00,84.4,71.3,30.12,ENE,68,1.1,1.1,65,0.00,,---,0.00,VWS V14.01,2013-08-29 14:51:00,
2013-08-29 10:56:00,84.9,71.4,30.12,ENE,68,1.1,1.1,64,0.00,,---,0.00,VWS V14.01,2013-08-29 14:56:00,
2013-08-29 11:01:00,84.7,70.3,30.12,WNW,292,3.4,3.4,62,0.00,,---,0.00,VWS V14.01,2013-08-29 15:01:00,
2013-08-29 11:06:00,84.9,70.0,30.12,NNE,22,2.2,3.4,61,0.00,,---,0.00,VWS V14.01,2013-08-29 15:06:00,
2013-08-29 11:12:00,85.3,70.3,30.12,SW,225,3.6,3.6,61,0.00,,---,0.00,VWS V14.01,2013-08-29 15:12:00,
2013-08-29 11:17:00,85.5,70.5,30.12,WSW,248,2.5,2.7,61,0.00,,---,0.00,VWS V14.01,2013-08-29 15:17:00,
2013-08-29 11:22:00,86.0,71.0,30.12,WNW,292,4.0,4.0,61,0.00,,---,0.00,VWS V14.01,2013-08-29 15:22:00,
2013-08-29 11:28:00,86.0,69.5,30.12,SE,135,2.0,2.0,58,0.00,,---,0.00,VWS V14.01,2013-08-29 15:28:00,
2013-08-29 11:33:00,86.4,69.8,30.12,NNE,22,1.3,1.6,58,0.00,,---,0.00,VWS V14.01,2013-08-29 15:33:00,
2013-08-29 11:39:00,86.9,70.4,30.12,NW,315,3.1,3.1,58,0.00,,---,0.00,VWS V14.01,2013-08-29 15:39:00,
2013-08-29 11:44:00,87.1,69.5,30.12,West,270,3.8,4.0,56,0.00,,---,0.00,VWS V14.01,2013-08-29 15:44:00,
2013-08-29 11:49:00,87.6,68.9,30.12,West,270,0.0,2.7,54,0.00,,---,0.00,VWS V14.01,2013-08-29 15:49:00,
2013-08-29 11:54:00,88.0,69.3,30.12,NNW,338,4.0,4.0,54,0.00,,---,0.00,VWS V14.01,2013-08-29 15:54:00,
2013-08-29 11:59:00,88.0,68.7,30.12,North,0,4.7,4.7,53,0.00,,---,0.00,VWS V14.01,2013-08-29 15:59:00,
2013-08-29 12:04:00,88.2,67.2,30.12,NW,315,2.2,2.2,50,0.00,,---,0.00,VWS V14.01,2013-08-29 16:04:00,
2013-08-29 12:09:00,88.3,67.9,30.12,North,0,1.1,1.1,51,0.00,,---,0.00,VWS V14.01,2013-08-29 16:09:00,
2013-08-29 12:14:00,88.5,67.5,30.12,North,0,3.6,3.6,50,0.00,,---,0.00,VWS V14.01,2013-08-29 16:14:00,
2013-08-29 12:19:00,88.7,66.5,30.09,NE,45,4.0,4.0,48,0.00,,---,0.00,VWS V14.01,2013-08-29 16:19:00,
2013-08-29 12:24:00,89.1,66.2,30.09,WSW,248,3.4,3.4,47,0.00,,---,0.00,VWS V14.01,2013-08-29 16:24:00,
2013-08-29 12:29:00,89.1,65.6,30.09,SSW,202,1.3,1.3,46,0.00,,---,0.00,VWS V14.01,2013-08-29 16:29:00,
2013-08-29 12:34:00,89.1,66.8,30.09,NNW,338,1.3,1.3,48,0.00,,---,0.00,VWS V14.01,2013-08-29 16:34:00,
2013-08-29 12:39:00,89.1,66.8,30.09,NE,45,2.7,2.9,48,0.00,,---,0.00,VWS V14.01,2013-08-29 16:39:00,
2013-08-29 12:44:00,89.1,66.8,30.09,WNW,292,3.8,6.0,48,0.00,,---,0.00,VWS V14.01,2013-08-29 16:44:00,
2013-08-29 12:50:00,89.1,66.8,30.09,NE,45,1.3,5.4,48,0.00,,---,0.00,VWS V14.01,2013-08-29 16:50:00,
2013-08-29 12:55:00,90.3,64.8,30.09,NNW,338,1.6,1.6,43,0.00,,---,0.00,VWS V14.01,2013-08-29 16:55:00,
2013-08-29 13:00:00,90.5,64.3,30.09,NNW,338,3.8,3.8,42,0.00,,---,0.00,VWS V14.01,2013-08-29 17:00:00,
2013-08-29 13:05:00,90.7,63.8,30.09,North,0,5.6,5.6,41,0.00,,---,0.00,VWS V14.01,2013-08-29 17:05:00,
2013-08-29 13:11:00,91.0,63.4,30.09,West,270,6.0,6.5,40,0.00,,---,0.00,VWS V14.01,2013-08-29 17:11:00,
2013-08-29 13:16:00,91.2,62.8,30.09,NNW,338,3.8,3.8,39,0.00,,---,0.00,VWS V14.01,2013-08-29 17:16:00,
2013-08-29 13:21:00,91.4,63.0,30.09,NNW,338,3.1,4.0,39,0.00,,---,0.00,VWS V14.01,2013-08-29 17:21:00,
2013-08-29 13:26:00,91.8,63.3,30.09,NNE,22,2.7,2.7,39,0.00,,---,0.00,VWS V14.01,2013-08-29 17:26:00,
2013-08-29 13:32:00,91.9,62.7,30.09,NNW,338,2.9,5.4,38,0.00,,---,0.00,VWS V14.01,2013-08-29 17:32:00,
2013-08-29 13:38:00,92.3,63.0,30.09,NNE,22,2.7,2.7,38,0.00,,---,0.00,VWS V14.01,2013-08-29 17:38:00,
2013-08-29 13:43:00,92.5,62.4,30.09,North,0,3.8,3.8,37,0.00,,---,0.00,VWS V14.01,2013-08-29 17:43:00,
2013-08-29 13:48:00,92.7,62.6,30.09,NNW,338,5.4,5.4,37,0.00,,---,0.00,VWS V14.01,2013-08-29 17:48:00,
2013-08-29 13:53:00,92.8,62.8,30.09,North,0,4.9,4.9,37,0.00,,---,0.00,VWS V14.01,2013-08-29 17:53:00,
2013-08-29 13:58:00,93.0,62.9,30.09,NNE,22,3.1,3.1,37,0.00,,---,0.00,VWS V14.01,2013-08-29 17:58:00,
2013-08-29 14:03:00,93.2,61.5,30.09,NW,315,2.9,2.9,35,0.00,,---,0.00,VWS V14.01,2013-08-29 18:03:00,
2013-08-29 14:08:00,93.4,61.7,30.09,NNE,22,4.3,4.3,35,0.00,,---,0.00,VWS V14.01,2013-08-29 18:08:00,
2013-08-29 14:14:00,93.4,60.8,30.09,ESE,112,1.1,10.7,34,0.00,,---,0.00,VWS V14.01,2013-08-29 18:14:00,
2013-08-29 14:19:00,93.2,59.8,30.09,North,0,4.0,4.0,33,0.00,,---,0.00,VWS V14.01,2013-08-29 18:19:00,
2013-08-29 14:25:00,93.4,60.8,30.09,NNE,22,5.6,7.8,34,0.00,,---,0.00,VWS V14.01,2013-08-29 18:25:00,
2013-08-29 14:30:00,93.2,59.8,30.09,NE,45,8.5,8.5,33,0.00,,---,0.00,VWS V14.01,2013-08-29 18:30:00,
2013-08-29 14:35:00,92.5,59.2,30.09,North,0,2.9,2.9,33,0.00,,---,0.00,VWS V14.01,2013-08-29 18:35:00,
2013-08-29 14:40:00,92.3,60.7,30.09,NNE,22,2.7,3.4,35,0.00,,---,0.00,VWS V14.01,2013-08-29 18:40:00,
2013-08-29 14:45:00,92.8,60.4,30.09,NNW,338,3.6,4.3,34,0.00,,---,0.00,VWS V14.01,2013-08-29 18:45:00,
2013-08-29 14:50:00,92.8,60.4,30.06,West,270,6.3,6.3,34,0.00,,---,0.00,VWS V14.01,2013-08-29 18:50:00,
2013-08-29 14:56:00,93.0,61.3,30.06,NE,45,3.1,3.1,35,0.00,,---,0.00,VWS V14.01,2013-08-29 18:56:00,
2013-08-29 15:01:00,92.7,60.2,30.06,NNW,338,4.0,4.0,34,0.00,,---,0.00,VWS V14.01,2013-08-29 19:01:00,
2013-08-29 15:06:00,91.9,60.4,30.06,SE,135,0.0,0.9,35,0.00,,---,0.00,VWS V14.01,2013-08-29 19:06:00,
2013-08-29 15:12:00,91.8,61.0,30.06,ENE,68,1.6,1.6,36,0.00,,---,0.00,VWS V14.01,2013-08-29 19:12:00,
2013-08-29 15:17:00,91.8,61.0,30.06,WNW,292,2.2,3.1,36,0.00,,---,0.00,VWS V14.01,2013-08-29 19:17:00,
2013-08-29 15:22:00,91.2,62.1,30.06,NE,45,2.2,2.2,38,0.00,,---,0.00,VWS V14.01,2013-08-29 19:22:00,
2013-08-29 15:27:00,90.9,62.5,30.06,NW,315,3.8,4.3,39,0.00,,---,0.00,VWS V14.01,2013-08-29 19:27:00,
2013-08-29 15:32:00,90.9,62.5,30.06,North,0,4.3,4.3,39,0.00,,---,0.00,VWS V14.01,2013-08-29 19:32:00,
2013-08-29 15:38:00,90.9,63.2,30.06,NNW,338,5.6,6.3,40,0.00,,---,0.00,VWS V14.01,2013-08-29 19:38:00,
2013-08-29 15:43:00,90.3,63.5,30.06,SW,225,4.3,5.6,41,0.00,,---,0.00,VWS V14.01,2013-08-29 19:43:00,
2013-08-29 15:49:00,89.8,63.0,30.06,NNE,22,3.4,7.8,41,0.00,,---,0.00,VWS V14.01,2013-08-29 19:49:00,
2013-08-29 15:54:00,90.0,63.8,30.06,WSW,248,2.9,2.9,42,0.00,,---,0.00,VWS V14.01,2013-08-29 19:54:00,
2013-08-29 15:59:00,89.8,63.7,30.06,NE,45,2.5,2.5,42,0.00,,---,0.00,VWS V14.01,2013-08-29 19:59:00,
2013-08-29 16:05:00,89.8,63.7,30.06,WSW,248,4.9,4.9,42,0.00,,---,0.00,VWS V14.01,2013-08-29 20:05:00,
2013-08-29 16:10:00,89.6,63.5,30.06,NW,315,4.9,4.9,42,0.00,,---,0.00,VWS V14.01,2013-08-29 20:10:00,
2013-08-29 16:15:00,89.2,63.8,30.06,NW,315,3.6,3.6,43,0.00,,---,0.00,VWS V14.01,2013-08-29 20:15:00,
2013-08-29 16:20:00,88.9,63.5,30.03,NNW,338,2.9,2.9,43,0.00,,---,0.00,VWS V14.01,2013-08-29 20:20:00,
2013-08-29 16:25:00,88.7,64.0,30.03,NNW,338,2.9,2.9,44,0.00,,---,0.00,VWS V14.01,2013-08-29 20:25:00,
2013-08-29 16:30:00,88.3,63.7,30.03,West,270,5.6,5.6,44,0.00,,---,0.00,VWS V14.01,2013-08-29 20:30:00,
2013-08-29 16:35:00,88.3,63.7,30.03,SSW,202,0.9,2.7,44,0.00,,---,0.00,VWS V14.01,2013-08-29 20:35:00,
2013-08-29 16:41:00,88.7,64.0,30.03,NW,315,4.9,4.9,44,0.00,,---,0.00,VWS V14.01,2013-08-29 20:41:00,
2013-08-29 16:46:00,88.9,64.2,30.03,SSW,202,2.7,2.7,44,0.00,,---,0.00,VWS V14.01,2013-08-29 20:46:00,
2013-08-29 16:51:00,89.1,65.0,30.03,WNW,292,3.1,5.6,45,0.00,,---,0.00,VWS V14.01,2013-08-29 20:51:00,
2013-08-29 16:56:00,89.4,64.7,30.03,WNW,292,7.6,7.6,44,0.00,,---,0.00,VWS V14.01,2013-08-29 20:56:00,
2013-08-29 17:02:00,90.0,64.5,30.03,SW,225,9.6,9.6,43,0.00,,---,0.00,VWS V14.01,2013-08-29 21:02:00,
2013-08-29 17:07:00,90.1,64.7,30.03,West,270,7.4,7.4,43,0.00,,---,0.00,VWS V14.01,2013-08-29 21:07:00,
2013-08-29 17:12:00,90.5,64.3,30.03,SSW,202,5.6,8.7,42,0.00,,---,0.00,VWS V14.01,2013-08-29 21:12:00,
2013-08-29 17:17:00,90.7,64.5,30.03,WNW,292,1.3,1.3,42,0.00,,---,0.00,VWS V14.01,2013-08-29 21:17:00,
2013-08-29 17:23:00,91.0,64.8,30.03,NNE,22,4.9,4.9,42,0.00,,---,0.00,VWS V14.01,2013-08-29 21:23:00,
2013-08-29 17:28:00,91.2,64.9,30.03,West,270,8.7,8.7,42,0.00,,---,0.00,VWS V14.01,2013-08-29 21:28:00,
2013-08-29 17:33:00,91.2,64.2,30.03,North,0,3.1,4.9,41,0.00,,---,0.00,VWS V14.01,2013-08-29 21:33:00,
2013-08-29 17:38:00,90.9,63.2,30.03,East,90,2.5,2.5,40,0.00,,---,0.00,VWS V14.01,2013-08-29 21:38:00,
2013-08-29 17:43:00,89.8,60.8,30.03,SSE,158,2.9,4.0,38,0.00,,---,0.00,VWS V14.01,2013-08-29 21:43:00,
2013-08-29 17:48:00,89.2,61.1,30.03,SW,225,2.2,2.7,39,0.00,,---,0.00,VWS V14.01,2013-08-29 21:48:00,
2013-08-29 17:53:00,88.7,61.3,30.03,SE,135,2.2,2.2,40,0.00,,---,0.00,VWS V14.01,2013-08-29 21:53:00,
2013-08-29 17:58:00,88.2,61.5,30.03,East,90,6.0,6.0,41,0.00,,---,0.00,VWS V14.01,2013-08-29 21:58:00,
2013-08-29 18:04:00,87.8,61.2,30.03,SE,135,0.9,2.5,41,0.00,,---,0.00,VWS V14.01,2013-08-29 22:04:00,
2013-08-29 18:09:00,87.3,62.1,30.03,West,270,0.9,2.5,43,0.00,,---,0.00,VWS V14.01,2013-08-29 22:09:00,
2013-08-29 18:14:00,87.3,62.7,30.03,NW,315,0.0,1.6,44,0.00,,---,0.00,VWS V14.01,2013-08-29 22:14:00,
2013-08-29 18:20:00,87.3,62.7,30.03,SSW,202,1.3,1.3,44,0.00,,---,0.00,VWS V14.01,2013-08-29 22:20:00,
2013-08-29 18:25:00,87.6,63.0,30.03,SW,225,1.3,2.2,44,0.00,,---,0.00,VWS V14.01,2013-08-29 22:25:00,
2013-08-29 18:30:00,87.8,63.2,30.03,WSW,248,1.1,2.7,44,0.00,,---,0.00,VWS V14.01,2013-08-29 22:30:00,
2013-08-29 18:35:00,88.2,63.5,30.03,West,270,4.7,4.7,44,0.00,,---,0.00,VWS V14.01,2013-08-29 22:35:00,
2013-08-29 18:40:00,88.2,63.5,30.03,NNW,338,3.4,3.6,44,0.00,,---,0.00,VWS V14.01,2013-08-29 22:40:00,
2013-08-29 18:45:00,88.2,63.5,30.03,West,270,2.0,4.0,44,0.00,,---,0.00,VWS V14.01,2013-08-29 22:45:00,
2013-08-29 18:50:00,88.0,63.4,30.03,WSW,248,6.0,6.0,44,0.00,,---,0.00,VWS V14.01,2013-08-29 22:50:00,
2013-08-29 18:55:00,87.6,63.0,30.03,NW,315,5.8,5.8,44,0.00,,---,0.00,VWS V14.01,2013-08-29 22:55:00,
2013-08-29 19:00:00,87.6,63.7,30.03,NNW,338,6.0,6.0,45,0.00,,---,0.00,VWS V14.01,2013-08-29 23:00:00,
2013-08-29 19:05:00,87.4,63.5,30.03,WNW,292,4.3,6.0,45,0.00,,---,0.00,VWS V14.01,2013-08-29 23:05:00,
2013-08-29 19:10:00,87.3,63.3,30.03,NW,315,2.5,3.8,45,0.00,,---,0.00,VWS V14.01,2013-08-29 23:10:00,
2013-08-29 19:15:00,87.1,63.8,30.03,NNW,338,1.3,5.8,46,0.00,,---,0.00,VWS V14.01,2013-08-29 23:15:00,
2013-08-29 19:21:00,87.1,63.8,30.03,NE,45,3.4,3.4,46,0.00,,---,0.00,VWS V14.01,2013-08-29 23:21:00,
2013-08-29 19:26:00,87.1,63.8,30.03,North,0,3.4,4.3,46,0.00,,---,0.00,VWS V14.01,2013-08-29 23:26:00,
2013-08-29 19:31:00,86.9,63.7,30.03,North,0,1.6,2.5,46,0.00,,---,0.00,VWS V14.01,2013-08-29 23:31:00,
2013-08-29 19:36:00,86.4,63.2,30.03,ESE,112,0.9,0.9,46,0.00,,---,0.00,VWS V14.01,2013-08-29 23:36:00,
2013-08-29 19:41:00,86.2,63.0,30.03,NE,45,0.0,1.3,46,0.00,,---,0.00,VWS V14.01,2013-08-29 23:41:00,
2013-08-29 19:46:00,86.0,63.4,30.03,SE,135,0.0,1.1,47,0.00,,---,0.00,VWS V14.01,2013-08-29 23:46:00,
2013-08-29 19:52:00,85.6,63.7,30.03,NNW,338,0.0,0.0,48,0.00,,---,0.00,VWS V14.01,2013-08-29 23:52:00,
2013-08-29 19:57:00,85.5,64.1,30.03,SSE,158,0.0,0.0,49,0.00,,---,0.00,VWS V14.01,2013-08-29 23:57:00,
2013-08-29 20:03:00,85.3,65.1,30.06,NW,315,0.0,0.0,51,0.00,,---,0.00,VWS V14.01,2013-08-30 00:03:00,
2013-08-29 20:08:00,84.9,65.3,30.06,South,180,0.0,0.0,52,0.00,,---,0.00,VWS V14.01,2013-08-30 00:08:00,
2013-08-29 20:14:00,84.6,65.0,30.06,NNE,22,1.6,1.6,52,0.00,,---,0.00,VWS V14.01,2013-08-30 00:14:00,
2013-08-29 20:19:00,84.4,64.8,30.03,NNE,22,2.0,2.0,52,0.00,,---,0.00,VWS V14.01,2013-08-30 00:19:00,
2013-08-29 20:24:00,84.2,65.2,30.03,WSW,248,0.9,0.9,53,0.00,,---,0.00,VWS V14.01,2013-08-30 00:24:00,
2013-08-29 20:29:00,84.2,65.8,30.03,NE,45,2.7,2.7,54,0.00,,---,0.00,VWS V14.01,2013-08-30 00:29:00,
2013-08-29 20:35:00,84.2,65.8,30.03,NNE,22,2.9,4.5,54,0.00,,---,0.00,VWS V14.01,2013-08-30 00:35:00,
2013-08-29 20:41:00,84.2,66.3,30.03,NNW,338,1.6,2.7,55,0.00,,---,0.00,VWS V14.01,2013-08-30 00:41:00,
2013-08-29 20:46:00,84.0,66.7,30.06,NNE,22,2.5,2.5,56,0.00,,---,0.00,VWS V14.01,2013-08-30 00:46:00,
2013-08-29 20:51:00,84.0,66.7,30.06,NNE,22,2.7,2.7,56,0.00,,---,0.00,VWS V14.01,2013-08-30 00:51:00,
2013-08-29 20:57:00,83.8,67.0,30.06,NNE,22,2.7,2.7,57,0.00,,---,0.00,VWS V14.01,2013-08-30 00:57:00,
2013-08-29 21:03:00,83.8,67.0,30.06,NNE,22,3.1,3.1,57,0.00,,---,0.00,VWS V14.01,2013-08-30 01:03:00,
2013-08-29 21:08:00,83.8,67.0,30.06,NNE,22,1.3,2.9,57,0.00,,---,0.00,VWS V14.01,2013-08-30 01:08:00,
2013-08-29 21:13:00,83.7,67.3,30.06,North,0,3.1,4.3,58,0.00,,---,0.00,VWS V14.01,2013-08-30 01:13:00,
2013-08-29 21:18:00,83.5,66.2,30.06,NNE,22,3.4,3.4,56,0.00,,---,0.00,VWS V14.01,2013-08-30 01:18:00,
2013-08-29 21:23:00,83.5,65.6,30.06,NW,315,2.5,3.6,55,0.00,,---,0.00,VWS V14.01,2013-08-30 01:23:00,
2013-08-29 21:28:00,83.3,66.0,30.06,NNE,22,2.5,3.4,56,0.00,,---,0.00,VWS V14.01,2013-08-30 01:28:00,
2013-08-29 21:33:00,83.1,65.8,30.03,NNW,338,2.7,2.7,56,0.00,,---,0.00,VWS V14.01,2013-08-30 01:33:00,
2013-08-29 21:38:00,83.1,66.3,30.03,ENE,68,0.0,0.0,57,0.00,,---,0.00,VWS V14.01,2013-08-30 01:38:00,
2013-08-29 21:43:00,82.9,66.7,30.03,ESE,112,0.9,2.5,58,0.00,,---,0.00,VWS V14.01,2013-08-30 01:43:00,
2013-08-29 21:48:00,82.8,66.5,30.06,SE,135,0.0,0.9,58,0.00,,---,0.00,VWS V14.01,2013-08-30 01:48:00,
2013-08-29 21:53:00,82.6,66.8,30.06,SE,135,1.3,1.3,59,0.00,,---,0.00,VWS V14.01,2013-08-30 01:53:00,
2013-08-29 21:58:00,82.4,66.7,30.06,East,90,0.0,1.6,59,0.00,,---,0.00,VWS V14.01,2013-08-30 01:58:00,
2013-08-29 22:03:00,82.2,66.5,30.06,SSW,202,0.9,1.3,59,0.00,,---,0.00,VWS V14.01,2013-08-30 02:03:00,
2013-08-29 22:08:00,82.0,66.8,30.06,SSE,158,0.0,0.0,60,0.00,,---,0.00,VWS V14.01,2013-08-30 02:08:00,
2013-08-29 22:14:00,81.9,66.6,30.06,ESE,112,0.0,0.0,60,0.00,,---,0.00,VWS V14.01,2013-08-30 02:14:00,
2013-08-29 22:19:00,81.7,66.9,30.06,SE,135,0.0,0.0,61,0.00,,---,0.00,VWS V14.01,2013-08-30 02:19:00,
2013-08-29 22:24:00,81.5,67.2,30.06,SSE,158,0.0,0.0,62,0.00,,---,0.00,VWS V14.01,2013-08-30 02:24:00,
2013-08-29 22:29:00,81.5,67.2,30.06,South,180,0.0,0.0,62,0.00,,---,0.00,VWS V14.01,2013-08-30 02:29:00,
2013-08-29 22:35:00,81.3,67.5,30.06,West,270,0.0,0.0,63,0.00,,---,0.00,VWS V14.01,2013-08-30 02:35:00,
2013-08-29 22:40:00,81.1,67.8,30.06,WSW,248,0.0,0.0,64,0.00,,---,0.00,VWS V14.01,2013-08-30 02:40:00,
2013-08-29 22:45:00,81.1,67.8,30.06,WSW,248,0.0,0.0,64,0.00,,---,0.00,VWS V14.01,2013-08-30 02:45:00,
2013-08-29 22:50:00,81.0,68.1,30.06,NW,315,0.0,0.0,65,0.00,,---,0.00,VWS V14.01,2013-08-30 02:50:00,
2013-08-29 22:56:00,80.8,68.4,30.06,NNW,338,0.0,0.0,66,0.00,,---,0.00,VWS V14.01,2013-08-30 02:56:00,
2013-08-29 23:02:00,80.6,68.2,30.09,NNW,338,0.0,0.0,66,0.00,,---,0.00,VWS V14.01,2013-08-30 03:02:00,
2013-08-29 23:07:00,80.4,68.5,30.09,NNW,338,0.0,0.0,67,0.00,,---,0.00,VWS V14.01,2013-08-30 03:07:00,
2013-08-29 23:12:00,80.2,68.3,30.09,NNW,338,0.0,0.0,67,0.00,,---,0.00,VWS V14.01,2013-08-30 03:12:00,
2013-08-29 23:17:00,80.1,68.6,30.06,ESE,112,0.0,0.0,68,0.00,,---,0.00,VWS V14.01,2013-08-30 03:17:00,
2013-08-29 23:22:00,79.9,68.4,30.06,East,90,0.0,0.0,68,0.00,,---,0.00,VWS V14.01,2013-08-30 03:22:00,
2013-08-29 23:27:00,79.9,68.4,30.06,East,90,0.0,0.0,68,0.00,,---,0.00,VWS V14.01,2013-08-30 03:27:00,
2013-08-29 23:32:00,79.9,68.4,30.06,SE,135,0.0,0.0,68,0.00,,---,0.00,VWS V14.01,2013-08-30 03:32:00,
2013-08-29 23:37:00,79.9,68.8,30.06,SE,135,0.0,0.0,69,0.00,,---,0.00,VWS V14.01,2013-08-30 03:37:00,
2013-08-29 23:43:00,79.7,68.6,30.06,SE,135,0.0,0.0,69,0.00,,---,0.00,VWS V14.01,2013-08-30 03:43:00,
2013-08-29 23:49:00,79.7,69.1,30.06,SE,135,0.0,0.0,70,0.00,,---,0.00,VWS V14.01,2013-08-30 03:49:00,
2013-08-29 23:54:00,79.7,69.1,30.06,SE,135,0.0,0.0,70,0.00,,---,0.00,VWS V14.01,2013-08-30 03:54:00,
2013-08-29 23:59:00,79.5,68.9,30.06,SE,135,0.0,0.0,70,0.00,,---,0.00,VWS V14.01,2013-08-30 03:59:00,